| time (UTC) | temp F | wind direction | speed MPH | gust MPH | rain 1hr in | rain 24hr in | rain mn in | humidity % | barometer mb |
| 20260510141556 | 57 | 61 | 5.0 | 12.0 | 0.00 | 0.00 | 0.00 | 43 | 1013.5 |
| 20260510141052 | 57 | 62 | 4.0 | 10.0 | 0.00 | 0.00 | 0.00 | 43 | 1013.6 |
| 20260510140553 | 57 | 92 | 6.0 | 11.0 | 0.00 | 0.00 | 0.00 | 43 | 1013.6 |
| 20260510140055 | 57 | 220 | 6.0 | 11.0 | 0.00 | 0.00 | 0.00 | 44 | 1013.8 |
| 20260510135551 | 57 | 344 | 4.0 | 10.0 | 0.00 | 0.00 | 0.00 | 44 | 1014.0 |
| 20260510134538 | 57 | 124 | 6.0 | 9.0 | 0.00 | 0.00 | 0.00 | 43 | 1014.0 |
| 20260510133538 | 57 | 149 | 7.0 | 12.0 | 0.00 | 0.00 | 0.00 | 41 | 1014.1 |
| 20260510133038 | 58 | 83 | 4.0 | 9.0 | 0.00 | 0.00 | 0.00 | 41 | 1014.2 |
| 20260510132535 | 58 | 39 | 2.0 | 9.0 | 0.00 | 0.00 | 0.00 | 41 | 1014.2 |
| 20260510132033 | 58 | 148 | 3.0 | 12.0 | 0.00 | 0.00 | 0.00 | 41 | 1014.3 |
| 20260510131533 | 58 | 90 | 5.0 | 12.0 | 0.00 | 0.00 | 0.00 | 40 | 1014.3 |
| 20260510131038 | 58 | 137 | 4.0 | 11.0 | 0.00 | 0.00 | 0.00 | 40 | 1014.3 |
| 20260510130521 | 58 | 78 | 3.0 | 12.0 | 0.00 | 0.00 | 0.00 | 40 | 1014.4 |
| 20260510130021 | 58 | 54 | 8.0 | 12.0 | 0.00 | 0.00 | 0.00 | 39 | 1014.4 |
| 20260510125518 | 58 | 102 | 6.0 | 12.0 | 0.00 | 0.00 | 0.00 | 39 | 1014.5 |
| 20260510125013 | 58 | 48 | 5.0 | 10.0 | 0.00 | 0.00 | 0.00 | 40 | 1014.6 |
| 20260510124521 | 58 | 131 | 4.0 | 13.0 | 0.00 | 0.00 | 0.00 | 39 | 1014.7 |
| 20260510124013 | 58 | 102 | 6.0 | 13.0 | 0.00 | 0.00 | 0.00 | 40 | 1014.8 |
| 20260510123015 | 58 | 28 | 4.0 | 12.0 | 0.00 | 0.00 | 0.00 | 39 | 1014.7 |
| 20260510122512 | 59 | 333 | 4.0 | 10.0 | 0.00 | 0.00 | 0.00 | 39 | 1014.9 |
| 20260510121513 | 60 | 97 | 5.0 | 10.0 | 0.00 | 0.00 | 0.00 | 38 | 1015.1 |
| 20260510121012 | 60 | 189 | 2.0 | 10.0 | 0.00 | 0.00 | 0.00 | 38 | 1015.0 |
| 20260510120513 | 60 | 145 | 2.0 | 10.0 | 0.00 | 0.00 | 0.00 | 37 | 1015.0 |
| 20260510115511 | 60 | 66 | 2.0 | 10.0 | 0.00 | 0.00 | 0.00 | 37 | 1015.1 |
| 20260510115014 | 60 | 248 | 3.0 | 10.0 | 0.00 | 0.00 | 0.00 | 40 | 1015.2 |
| 20260510114511 | 60 | 76 | 4.0 | 13.0 | 0.00 | 0.00 | 0.00 | 38 | 1015.1 |
| 20260510114013 | 60 | 154 | 5.0 | 13.0 | 0.00 | 0.00 | 0.00 | 38 | 1015.2 |
| 20260510113512 | 60 | 109 | 5.0 | 11.0 | 0.00 | 0.00 | 0.00 | 37 | 1015.3 |
| 20260510113013 | 60 | 197 | 5.0 | 11.0 | 0.00 | 0.00 | 0.00 | 36 | 1015.4 |
| 20260510112515 | 59 | 172 | 2.0 | 14.0 | 0.00 | 0.00 | 0.00 | 37 | 1015.4 |
| 20260510112012 | 59 | 56 | 5.0 | 14.0 | 0.00 | 0.00 | 0.00 | 37 | 1015.5 |
| 20260510111513 | 59 | 128 | 7.0 | 12.0 | 0.00 | 0.00 | 0.00 | 36 | 1015.5 |
| 20260510111013 | 61 | 209 | 5.0 | 12.0 | 0.00 | 0.00 | 0.00 | 36 | 1015.6 |
| 20260510110513 | 61 | 45 | 5.0 | 12.0 | 0.00 | 0.00 | 0.00 | 35 | 1015.7 |
| 20260510104006 | 60 | 127 | 6.0 | 10.0 | 0.00 | 0.00 | 0.00 | 37 | 1016.1 |
| 20260510103506 | 61 | 41 | 4.0 | 14.0 | 0.00 | 0.00 | 0.00 | 36 | 1016.1 |
| 20260510103007 | 61 | 247 | 3.0 | 14.0 | 0.00 | 0.00 | 0.00 | 37 | 1016.2 |
| 20260510102003 | 60 | 147 | 4.0 | 12.0 | 0.00 | 0.00 | 0.00 | 37 | 1016.2 |
| 20260510101502 | 61 | 94 | 3.0 | 6.0 | 0.00 | 0.00 | 0.00 | 37 | 1016.3 |
| 20260510100957 | 60 | 309 | 3.0 | 7.0 | 0.00 | 0.00 | 0.00 | 38 | 1016.3 |
| 20260510100452 | 60 | 224 | 3.0 | 10.0 | 0.00 | 0.00 | 0.00 | 38 | 1016.4 |
| 20260510095432 | 60 | 69 | 4.0 | 10.0 | 0.00 | 0.00 | 0.00 | 38 | 1016.5 |
| 20260510094930 | 60 | 109 | 5.0 | 10.0 | 0.00 | 0.00 | 0.00 | 38 | 1016.7 |
| 20260510093930 | 60 | 137 | 3.0 | 10.0 | 0.00 | 0.00 | 0.00 | 39 | 1016.8 |
| 20260510093430 | 60 | 165 | 6.0 | 10.0 | 0.00 | 0.00 | 0.00 | 38 | 1016.8 |
| 20260510092429 | 60 | 85 | 4.0 | 10.0 | 0.00 | 0.00 | 0.00 | 39 | 1016.8 |
| 20260510091932 | 60 | 193 | 5.0 | 10.0 | 0.00 | 0.00 | 0.00 | 39 | 1017.0 |
| 20260510090929 | 60 | 216 | 5.0 | 10.0 | 0.00 | 0.00 | 0.00 | 37 | 1017.0 |
| 20260510090429 | 61 | 145 | 4.0 | 10.0 | 0.00 | 0.00 | 0.00 | 38 | 1016.9 |
| 20260510085929 | 61 | 148 | 5.0 | 10.0 | 0.00 | 0.00 | 0.00 | 36 | 1017.0 |
| 20260510084929 | 60 | 219 | 5.0 | 11.0 | 0.00 | 0.00 | 0.00 | 37 | 1017.2 |
| 20260510084434 | 59 | 135 | 5.0 | 11.0 | 0.00 | 0.00 | 0.00 | 37 | 1017.2 |
| 20260510083931 | 60 | 125 | 3.0 | 9.0 | 0.00 | 0.00 | 0.00 | 36 | 1017.3 |
| 20260510082930 | 60 | 97 | 4.0 | 11.0 | 0.00 | 0.00 | 0.00 | 36 | 1017.4 |
| 20260510082420 | 60 | 117 | 4.0 | 11.0 | 0.00 | 0.00 | 0.00 | 36 | 1017.5 |
| 20260510081417 | 60 | 138 | 6.0 | 11.0 | 0.00 | 0.00 | 0.00 | 36 | 1017.6 |
| 20260510080916 | 60 | 330 | 4.0 | 9.0 | 0.00 | 0.00 | 0.00 | 38 | 1017.6 |
| 20260510075914 | 60 | 96 | 4.0 | 9.0 | 0.00 | 0.00 | 0.00 | 37 | 1017.8 |
| 20260510075412 | 60 | 68 | 3.0 | 7.0 | 0.00 | 0.00 | 0.00 | 37 | 1017.9 |
| 20260510074915 | 60 | 102 | 2.0 | 7.0 | 0.00 | 0.00 | 0.00 | 38 | 1017.9 |
| 20260510074412 | 59 | 111 | 2.0 | 7.0 | 0.00 | 0.00 | 0.00 | 37 | 1017.9 |
| 20260510073410 | 59 | 4 | 4.0 | 5.0 | 0.00 | 0.00 | 0.00 | 39 | 1018.0 |
| 20260510072410 | 58 | 171 | 3.0 | 6.0 | 0.00 | 0.00 | 0.00 | 40 | 1018.2 |
| 20260510071912 | 59 | 111 | 2.0 | 4.0 | 0.00 | 0.00 | 0.00 | 41 | 1018.3 |
| 20260510071411 | 59 | 34 | 1.0 | 9.0 | 0.00 | 0.00 | 0.00 | 39 | 1018.4 |
| 20260510070912 | 58 | 79 | 4.0 | 9.0 | 0.00 | 0.00 | 0.00 | 41 | 1018.5 |
| 20260510065914 | 57 | 63 | 2.0 | 5.0 | 0.00 | 0.00 | 0.00 | 44 | 1018.6 |
| 20260510065412 | 58 | 151 | 3.0 | 5.0 | 0.00 | 0.00 | 0.00 | 43 | 1018.6 |
| 20260510064412 | 57 | 79 | 2.0 | 5.0 | 0.00 | 0.00 | 0.00 | 45 | 1018.9 |
| 20260510063914 | 57 | 89 | 2.0 | 4.0 | 0.00 | 0.00 | 0.00 | 47 | 1018.9 |
| 20260510063412 | 55 | 199 | 1.0 | 5.0 | 0.00 | 0.00 | 0.00 | 50 | 1018.9 |
| 20260510062913 | 54 | 145 | 2.0 | 5.0 | 0.00 | 0.00 | 0.00 | 50 | 1019.0 |
| 20260510062412 | 55 | 49 | 2.0 | 6.0 | 0.00 | 0.00 | 0.00 | 50 | 1019.1 |
| 20260510061919 | 54 | 52 | 3.0 | 6.0 | 0.00 | 0.00 | 0.00 | 51 | 1019.2 |
| 20260510061412 | 54 | 83 | 4.0 | 6.0 | 0.00 | 0.00 | 0.00 | 51 | 1019.2 |
| 20260510060419 | 52 | 133 | 3.0 | 6.0 | 0.00 | 0.00 | 0.00 | 54 | 1019.3 |
| 20260510055914 | 52 | 113 | 2.0 | 6.0 | 0.00 | 0.00 | 0.00 | 55 | 1019.3 |
| 20260510055415 | 51 | 93 | 2.0 | 6.0 | 0.00 | 0.00 | 0.00 | 57 | 1019.3 |
| 20260510054914 | 51 | 155 | 3.0 | 5.0 | 0.00 | 0.00 | 0.00 | 56 | 1019.5 |
| 20260510054414 | 51 | 111 | 2.0 | 7.0 | 0.00 | 0.00 | 0.00 | 58 | 1019.4 |
| 20260510053913 | 50 | 190 | 2.0 | 7.0 | 0.00 | 0.00 | 0.00 | 58 | 1019.5 |
| 20260510053415 | 50 | 82 | 2.0 | 6.0 | 0.00 | 0.00 | 0.00 | 59 | 1019.6 |
| 20260510052412 | 49 | 68 | 4.0 | 5.0 | 0.00 | 0.00 | 0.00 | 61 | 1019.6 |
| 20260510051914 | 48 | 69 | 2.0 | 4.0 | 0.00 | 0.00 | 0.00 | 62 | 1019.7 |
| 20260510051412 | 48 | 130 | 1.0 | 4.0 | 0.00 | 0.00 | 0.00 | 64 | 1019.7 |
| 20260510050411 | 47 | 71 | 1.0 | 4.0 | 0.00 | 0.00 | 0.00 | 67 | 1019.9 |
| 20260510045913 | 47 | 104 | 2.0 | 4.0 | 0.00 | 0.00 | 0.00 | 66 | 1019.9 |
| 20260510045415 | 46 | 59 | 2.0 | 4.0 | 0.00 | 0.00 | 0.00 | 67 | 1020.0 |
| 20260510044914 | 46 | 93 | 2.0 | 3.0 | 0.00 | 0.00 | 0.00 | 68 | 1020.0 |
| 20260510044412 | 45 | 109 | 3.0 | 3.0 | 0.00 | 0.00 | 0.00 | 68 | 1020.0 |
| 20260510043913 | 45 | 55 | 2.0 | 3.0 | 0.00 | 0.00 | 0.00 | 69 | 1020.1 |
| 20260510042912 | 44 | 82 | 1.0 | 4.0 | 0.00 | 0.00 | 0.00 | 71 | 1020.1 |
| 20260510042411 | 43 | 83 | 2.0 | 4.0 | 0.00 | 0.00 | 0.00 | 72 | 1020.1 |
| 20260510041911 | 43 | 72 | 2.0 | 4.0 | 0.00 | 0.00 | 0.00 | 72 | 1020.2 |
| 20260510041410 | 42 | 82 | 2.0 | 4.0 | 0.00 | 0.00 | 0.00 | 73 | 1020.2 |
| 20260510040916 | 41 | 86 | 1.0 | 4.0 | 0.00 | 0.00 | 0.00 | 74 | 1020.3 |
| 20260510040410 | 40 | 65 | 2.0 | 3.0 | 0.00 | 0.00 | 0.00 | 75 | 1020.2 |
| 20260510035914 | 40 | 78 | 1.0 | 5.0 | 0.00 | 0.00 | 0.00 | 76 | 1020.2 |
| 20260510035412 | 39 | 72 | 2.0 | 5.0 | 0.00 | 0.00 | 0.00 | 76 | 1020.3 |
| 20260510034913 | 38 | 96 | 2.0 | 3.0 | 0.00 | 0.00 | 0.00 | 76 | 1020.3 |
| 20260510033918 | 37 | 63 | 1.0 | 3.0 | 0.00 | 0.00 | 0.00 | 76 | 1020.5 |
| 20260510033416 | 36 | 63 | 1.0 | 3.0 | 0.00 | 0.00 | 0.00 | 76 | 1020.4 |
| 20260510032915 | 36 | 85 | 0.0 | 1.0 | 0.00 | 0.00 | 0.00 | 75 | 1020.5 |
| 20260510032414 | 35 | 66 | 0.0 | 1.0 | 0.00 | 0.00 | 0.00 | 76 | 1020.5 |
| 20260510031914 | 35 | 69 | 0.0 | 1.0 | 0.00 | 0.00 | 0.00 | 75 | 1020.6 |
| 20260510031412 | 35 | 69 | 0.0 | 2.0 | 0.00 | 0.00 | 0.00 | 75 | 1020.7 |
| 20260510030913 | 35 | 69 | 1.0 | 2.0 | 0.00 | 0.00 | 0.00 | 75 | 1020.6 |
| 20260510030412 | 35 | 82 | 0.0 | 1.0 | 0.00 | 0.00 | 0.00 | 75 | 1020.6 |
| 20260510025913 | 35 | 87 | 0.0 | 1.0 | 0.00 | 0.00 | 0.00 | 75 | 1020.7 |
| 20260510025412 | 35 | 71 | 0.0 | 1.0 | 0.00 | 0.00 | 0.00 | 75 | 1020.8 |
| 20260510024913 | 35 | 71 | 0.0 | 0.0 | 0.00 | 0.00 | 0.00 | 75 | 1020.8 |
| 20260510023914 | 35 | 71 | 0.0 | 1.0 | 0.00 | 0.00 | 0.00 | 74 | 1020.8 |
| 20260510023415 | 34 | 71 | 0.0 | 0.0 | 0.00 | 0.00 | 0.00 | 74 | 1020.8 |
| 20260510022917 | 34 | 71 | 0.0 | 0.0 | 0.00 | 0.00 | 0.00 | 74 | 1021.0 |
| 20260510022411 | 34 | 71 | 0.0 | 0.0 | 0.00 | 0.00 | 0.00 | 74 | 1020.9 |
| 20260510021918 | 34 | 71 | 0.0 | 0.0 | 0.00 | 0.00 | 0.00 | 74 | 1021.0 |
| 20260510020914 | 34 | 71 | 0.0 | 1.0 | 0.00 | 0.00 | 0.00 | 74 | 1021.2 |
| 20260510020412 | 34 | 71 | 0.0 | 1.0 | 0.00 | 0.00 | 0.00 | 73 | 1021.2 |
| 20260510015918 | 34 | 61 | 0.0 | 1.0 | 0.00 | 0.00 | 0.00 | 73 | 1021.2 |
| 20260510015411 | 34 | 61 | 0.0 | 1.0 | 0.00 | 0.00 | 0.00 | 73 | 1021.3 |
| 20260510014913 | 35 | 61 | 0.0 | 0.0 | 0.00 | 0.00 | 0.00 | 73 | 1021.3 |
| 20260510013918 | 35 | 61 | 0.0 | 0.0 | 0.00 | 0.00 | 0.00 | 72 | 1021.4 |
| 20260510013412 | 35 | 61 | 0.0 | 0.0 | 0.00 | 0.00 | 0.00 | 72 | 1021.3 |
| 20260510012911 | 35 | 61 | 0.0 | 0.0 | 0.00 | 0.00 | 0.00 | 71 | 1021.4 |
| 20260510012410 | 35 | 61 | 0.0 | 0.0 | 0.00 | 0.00 | 0.00 | 71 | 1021.5 |
| 20260510011917 | 35 | 61 | 0.0 | 0.0 | 0.00 | 0.00 | 0.00 | 71 | 1021.5 |
| 20260510011412 | 35 | 61 | 0.0 | 0.0 | 0.00 | 0.00 | 0.00 | 71 | 1021.7 |
| 20260510010917 | 35 | 61 | 0.0 | 0.0 | 0.00 | 0.00 | 0.00 | 70 | 1021.7 |
| 20260510010411 | 35 | 61 | 0.0 | 0.0 | 0.00 | 0.00 | 0.00 | 70 | 1021.6 |
| 20260510005913 | 35 | 61 | 0.0 | 0.0 | 0.00 | 0.00 | 0.00 | 70 | 1021.7 |
| 20260510005412 | 36 | 61 | 0.0 | 0.0 | 0.00 | 0.00 | 0.00 | 70 | 1021.8 |
| 20260510004913 | 36 | 61 | 0.0 | 1.0 | 0.00 | 0.00 | 0.00 | 69 | 1021.7 |
| 20260510004411 | 36 | 61 | 0.0 | 1.0 | 0.00 | 0.00 | 0.00 | 68 | 1021.9 |
| 20260510003410 | 36 | 61 | 0.0 | 1.0 | 0.00 | 0.00 | 0.00 | 69 | 1022.0 |
| 20260510002911 | 36 | 62 | 0.0 | 1.0 | 0.00 | 0.00 | 0.00 | 68 | 1022.0 |
| 20260510002410 | 36 | 62 | 0.0 | 2.0 | 0.00 | 0.00 | 0.00 | 68 | 1022.1 |
| 20260510001915 | 36 | 69 | 0.0 | 2.0 | 0.00 | 0.00 | 0.00 | 68 | 1022.1 |
| 20260510001412 | 36 | 69 | 0.0 | 2.0 | 0.00 | 0.00 | 0.00 | 67 | 1022.1 |
| 20260510000911 | 36 | 56 | 0.0 | 1.0 | 0.00 | 0.00 | 0.00 | 67 | 1022.1 |
| 20260510000411 | 36 | 109 | 0.0 | 0.0 | 0.00 | 0.00 | 0.00 | 67 | 1022.1 |
| 20260509235913 | 36 | 109 | 0.0 | 0.0 | 0.00 | 0.00 | 0.00 | 67 | 1022.2 |
| 20260509235411 | 36 | 109 | 0.0 | 0.0 | 0.00 | 0.00 | 0.00 | 66 | 1022.2 |
| 20260509234917 | 36 | 109 | 0.0 | 0.0 | 0.00 | 0.00 | 0.00 | 66 | 1022.3 |
| 20260509234414 | 36 | 109 | 0.0 | 0.0 | 0.00 | 0.00 | 0.00 | 66 | 1022.4 |
| 20260509233913 | 36 | 109 | 0.0 | 0.0 | 0.00 | 0.00 | 0.00 | 65 | 1022.4 |
| 20260509233414 | 36 | 109 | 0.0 | 0.0 | 0.00 | 0.00 | 0.00 | 65 | 1022.6 |
| 20260509232917 | 37 | 109 | 0.0 | 0.0 | 0.00 | 0.00 | 0.00 | 65 | 1022.6 |
| 20260509232411 | 37 | 109 | 0.0 | 0.0 | 0.00 | 0.00 | 0.00 | 65 | 1022.6 |
| 20260509231412 | 37 | 109 | 0.0 | 0.0 | 0.00 | 0.00 | 0.00 | 64 | 1022.8 |
| 20260509230919 | 37 | 109 | 0.0 | 0.0 | 0.00 | 0.00 | 0.00 | 64 | 1022.8 |
| 20260509230409 | 37 | 109 | 0.0 | 0.0 | 0.00 | 0.00 | 0.00 | 64 | 1022.9 |
| 20260509225911 | 37 | 109 | 0.0 | 0.0 | 0.00 | 0.00 | 0.00 | 63 | 1022.9 |
| 20260509225410 | 37 | 109 | 0.0 | 0.0 | 0.00 | 0.00 | 0.00 | 63 | 1022.9 |
| 20260509224911 | 37 | 109 | 0.0 | 0.0 | 0.00 | 0.00 | 0.00 | 62 | 1023.0 |
| 20260509223410 | 38 | 109 | 0.0 | 0.0 | 0.00 | 0.00 | 0.00 | 61 | 1023.1 |
| 20260509222918 | 38 | 109 | 0.0 | 0.0 | 0.00 | 0.00 | 0.00 | 60 | 1023.2 |
| 20260509222411 | 38 | 109 | 0.0 | 0.0 | 0.00 | 0.00 | 0.00 | 60 | 1023.3 |
| 20260509221913 | 38 | 109 | 0.0 | 0.0 | 0.00 | 0.00 | 0.00 | 60 | 1023.3 |
| 20260509221411 | 38 | 109 | 0.0 | 0.0 | 0.00 | 0.00 | 0.00 | 60 | 1023.2 |
| 20260509220913 | 38 | 109 | 0.0 | 0.0 | 0.00 | 0.00 | 0.00 | 60 | 1023.3 |
| 20260509220410 | 39 | 109 | 0.0 | 0.0 | 0.00 | 0.00 | 0.00 | 60 | 1023.3 |
| 20260509215911 | 39 | 109 | 0.0 | 0.0 | 0.00 | 0.00 | 0.00 | 60 | 1023.3 |
| 20260509215419 | 39 | 109 | 0.0 | 0.0 | 0.00 | 0.00 | 0.00 | 59 | 1023.4 |
| 20260509214411 | 39 | 109 | 0.0 | 0.0 | 0.00 | 0.00 | 0.00 | 59 | 1023.5 |
| 20260509213914 | 40 | 109 | 0.0 | 0.0 | 0.00 | 0.00 | 0.00 | 58 | 1023.5 |
| 20260509213414 | 40 | 109 | 0.0 | 1.0 | 0.00 | 0.00 | 0.00 | 58 | 1023.5 |
| 20260509212912 | 40 | 109 | 0.0 | 1.0 | 0.00 | 0.00 | 0.00 | 58 | 1023.6 |
| 20260509212411 | 40 | 109 | 0.0 | 0.0 | 0.00 | 0.00 | 0.00 | 58 | 1023.6 |
| 20260509211416 | 41 | 109 | 0.0 | 0.0 | 0.00 | 0.00 | 0.00 | 57 | 1023.7 |
| 20260509210912 | 41 | 109 | 0.0 | 0.0 | 0.00 | 0.00 | 0.00 | 56 | 1023.8 |
| 20260509210410 | 42 | 109 | 0.0 | 0.0 | 0.00 | 0.00 | 0.00 | 55 | 1023.8 |
| 20260509205912 | 42 | 109 | 0.0 | 0.0 | 0.00 | 0.00 | 0.00 | 54 | 1023.6 |
| 20260509205414 | 42 | 109 | 0.0 | 0.0 | 0.00 | 0.00 | 0.00 | 51 | 1023.7 |
| 20260509204915 | 43 | 109 | 0.0 | 0.0 | 0.00 | 0.00 | 0.00 | 50 | 1023.7 |
| 20260509203911 | 43 | 109 | 0.0 | 0.0 | 0.00 | 0.00 | 0.00 | 52 | 1023.6 |
| 20260509202914 | 44 | 109 | 0.0 | 0.0 | 0.00 | 0.00 | 0.00 | 48 | 1023.8 |
| 20260509201912 | 44 | 109 | 0.0 | 0.0 | 0.00 | 0.00 | 0.00 | 47 | 1023.8 |
| 20260509201411 | 44 | 109 | 0.0 | 0.0 | 0.00 | 0.00 | 0.00 | 49 | 1023.8 |
| 20260509200912 | 45 | 109 | 0.0 | 0.0 | 0.00 | 0.00 | 0.00 | 50 | 1023.9 |
| 20260509200409 | 45 | 109 | 0.0 | 0.0 | 0.00 | 0.00 | 0.00 | 49 | 1023.8 |
| 20260509195911 | 45 | 109 | 0.0 | 1.0 | 0.00 | 0.00 | 0.00 | 49 | 1023.9 |
| 20260509195410 | 45 | 109 | 0.0 | 1.0 | 0.00 | 0.00 | 0.00 | 47 | 1023.8 |
| 20260509194912 | 46 | 106 | 0.0 | 2.0 | 0.00 | 0.00 | 0.00 | 46 | 1023.8 |
| 20260509194413 | 46 | 104 | 0.0 | 2.0 | 0.00 | 0.00 | 0.00 | 45 | 1024.0 |
| 20260509193913 | 46 | 100 | 0.0 | 2.0 | 0.00 | 0.00 | 0.00 | 45 | 1024.0 |
| 20260509193411 | 47 | 99 | 0.0 | 0.0 | 0.00 | 0.00 | 0.00 | 46 | 1024.0 |
| 20260509192920 | 47 | 99 | 0.0 | 0.0 | 0.00 | 0.00 | 0.00 | 44 | 1024.1 |
| 20260509192411 | 47 | 99 | 0.0 | 0.0 | 0.00 | 0.00 | 0.00 | 44 | 1024.1 |
| 20260509191912 | 47 | 99 | 0.0 | 0.0 | 0.00 | 0.00 | 0.00 | 44 | 1024.0 |
| 20260509191410 | 48 | 99 | 0.0 | 0.0 | 0.00 | 0.00 | 0.00 | 43 | 1024.1 |
| 20260509190912 | 48 | 99 | 0.0 | 0.0 | 0.00 | 0.00 | 0.00 | 43 | 1024.0 |
| 20260509190410 | 49 | 99 | 0.0 | 2.0 | 0.00 | 0.00 | 0.00 | 41 | 1024.0 |
| 20260509185919 | 49 | 99 | 0.0 | 2.0 | 0.00 | 0.00 | 0.00 | 42 | 1024.1 |
| 20260509185411 | 50 | 96 | 0.0 | 3.0 | 0.00 | 0.00 | 0.00 | 39 | 1024.0 |
| 20260509184918 | 50 | 90 | 1.0 | 3.0 | 0.00 | 0.00 | 0.00 | 37 | 1024.0 |
| 20260509183912 | 51 | 106 | 2.0 | 5.0 | 0.00 | 0.00 | 0.00 | 36 | 1024.0 |
| 20260509183412 | 51 | 42 | 2.0 | 5.0 | 0.00 | 0.00 | 0.00 | 37 | 1024.0 |
| 20260509182912 | 51 | 63 | 1.0 | 6.0 | 0.00 | 0.00 | 0.00 | 36 | 1024.0 |
| 20260509182410 | 51 | 89 | 2.0 | 6.0 | 0.00 | 0.00 | 0.00 | 35 | 1024.2 |
| 20260509181413 | 51 | 65 | 1.0 | 4.0 | 0.00 | 0.00 | 0.00 | 36 | 1024.2 |
| 20260509180912 | 52 | 107 | 2.0 | 5.0 | 0.00 | 0.00 | 0.00 | 35 | 1024.2 |
| 20260509180415 | 52 | 106 | 3.0 | 5.0 | 0.00 | 0.00 | 0.00 | 35 | 1024.2 |
| 20260509175912 | 52 | 125 | 1.0 | 5.0 | 0.00 | 0.00 | 0.00 | 35 | 1024.4 |
| 20260509175410 | 52 | 117 | 1.0 | 5.0 | 0.00 | 0.00 | 0.00 | 35 | 1024.3 |
| 20260509174912 | 52 | 234 | 1.0 | 5.0 | 0.00 | 0.00 | 0.00 | 34 | 1024.4 |
| 20260509174409 | 53 | 65 | 1.0 | 4.0 | 0.00 | 0.00 | 0.00 | 34 | 1024.4 |
| 20260509173911 | 53 | 54 | 1.0 | 5.0 | 0.00 | 0.00 | 0.00 | 34 | 1024.5 |
| 20260509173422 | 53 | 113 | 2.0 | 5.0 | 0.00 | 0.00 | 0.00 | 34 | 1024.5 |
| 20260509172920 | 53 | 111 | 2.0 | 7.0 | 0.00 | 0.00 | 0.00 | 34 | 1024.5 |
| 20260509172415 | 53 | 125 | 4.0 | 7.0 | 0.00 | 0.00 | 0.00 | 33 | 1024.5 |
| 20260509171917 | 53 | 172 | 2.0 | 7.0 | 0.00 | 0.00 | 0.00 | 33 | 1024.5 |
| 20260509171416 | 53 | 94 | 3.0 | 5.0 | 0.00 | 0.00 | 0.00 | 33 | 1024.6 |
| 20260509170913 | 53 | 141 | 3.0 | 9.0 | 0.00 | 0.00 | 0.00 | 33 | 1024.6 |
| 20260509170412 | 53 | 269 | 4.0 | 9.0 | 0.00 | 0.00 | 0.00 | 33 | 1024.7 |
| 20260509165912 | 53 | 97 | 3.0 | 10.0 | 0.00 | 0.00 | 0.00 | 33 | 1024.8 |
| 20260509165410 | 54 | 68 | 3.0 | 10.0 | 0.00 | 0.00 | 0.00 | 32 | 1024.8 |
| 20260509164918 | 54 | 69 | 4.0 | 12.0 | 0.00 | 0.00 | 0.00 | 32 | 1024.9 |
| 20260509164410 | 54 | 113 | 5.0 | 12.0 | 0.00 | 0.00 | 0.00 | 32 | 1024.8 |
| 20260509163918 | 54 | 80 | 4.0 | 9.0 | 0.00 | 0.00 | 0.00 | 33 | 1024.9 |
| 20260509162410 | 54 | 138 | 5.0 | 6.0 | 0.00 | 0.00 | 0.00 | 33 | 1025.0 |
| 20260509161413 | 54 | 199 | 5.0 | 9.0 | 0.00 | 0.00 | 0.00 | 33 | 1025.1 |
| 20260509160412 | 54 | 86 | 4.0 | 9.0 | 0.00 | 0.00 | 0.00 | 32 | 1025.1 |
| 20260509155913 | 54 | 41 | 4.0 | 9.0 | 0.00 | 0.00 | 0.00 | 32 | 1025.2 |
| 20260509154912 | 55 | 283 | 3.0 | 12.0 | 0.00 | 0.00 | 0.00 | 31 | 1025.3 |
| 20260509154410 | 55 | 71 | 5.0 | 11.0 | 0.00 | 0.00 | 0.00 | 31 | 1025.3 |
| 20260509153410 | 55 | 7 | 2.0 | 7.0 | 0.00 | 0.00 | 0.00 | 32 | 1025.4 |
| 20260509152911 | 54 | 82 | 3.0 | 11.0 | 0.00 | 0.00 | 0.00 | 31 | 1025.5 |
| 20260509152413 | 55 | 118 | 2.0 | 11.0 | 0.00 | 0.00 | 0.00 | 30 | 1025.5 |
| 20260509151911 | 55 | 54 | 3.0 | 10.0 | 0.00 | 0.00 | 0.00 | 30 | 1025.6 |
| 20260509151411 | 55 | 204 | 2.0 | 9.0 | 0.00 | 0.00 | 0.00 | 30 | 1025.6 |
| 20260509150912 | 55 | 97 | 3.0 | 11.0 | 0.00 | 0.00 | 0.00 | 30 | 1025.7 |
| 20260509150409 | 55 | 116 | 4.0 | 11.0 | 0.00 | 0.00 | 0.00 | 28 | 1025.6 |
| 20260509145911 | 55 | 10 | 4.0 | 9.0 | 0.00 | 0.00 | 0.00 | 27 | 1025.8 |
| 20260509145413 | 55 | 131 | 3.0 | 10.0 | 0.00 | 0.00 | 0.00 | 26 | 1025.9 |
| 20260509145130 | 55 | 92 | 3.0 | 10.0 | 0.00 | 0.00 | 0.00 | 26 | 1026.0 |
| 20260509144934 | 55 | 149 | 6.0 | 9.0 | 0.00 | 0.00 | 0.00 | 26 | 1026.2 |
| 20260509144755 | 55 | 79 | 4.0 | 9.0 | 0.00 | 0.00 | 0.00 | 26 | 1026.0 |
| 20260509144606 | 55 | 138 | 2.0 | 11.0 | 0.00 | 0.00 | 0.00 | 27 | 1026.1 |
| 20260509144359 | 55 | 138 | 3.0 | 11.0 | 0.00 | 0.00 | 0.00 | 27 | 1026.3 |
| 20260509144202 | 55 | 72 | 3.0 | 10.0 | 0.00 | 0.00 | 0.00 | 27 | 1026.3 |
| 20260509144026 | 55 | 179 | 4.0 | 11.0 | 0.00 | 0.00 | 0.00 | 26 | 1026.4 |
| 20260509143835 | 55 | 52 | 2.0 | 11.0 | 0.00 | 0.00 | 0.00 | 26 | 1026.4 |
| 20260509143624 | 55 | 100 | 3.0 | 6.0 | 0.00 | 0.00 | 0.00 | 27 | 1026.5 |